Sulphur Springs, TX

8:12 PM CDT on March 22, 2017 (GMT -0500)
Sulphur Springs Municipal

Weather History for KSLR - January, 2013

Change the Weather History Date:

Monday, January 14, 2013

  Actual Average (KGVT) Record (KGVT)
Temperature  
Mean Temperature 35 °F -  
Max Temperature 42 °F 54 °F 75 °F (2000)
Min Temperature 28 °F 38 °F 28 °F (1997)
Degree Days  
Heating Degree Days 30    
Moisture  
Dew Point 23 °F    
Average Humidity 64    
Maximum Humidity 80    
Minimum Humidity 49    
Precipitation  
Precipitation 0.00 in - - ()
Sea Level Pressure  
Sea Level Pressure 30.30 in    
Wind  
Wind Speed 10 mph (NE)    
Max Wind Speed 14 mph    
Max Gust Speed 18 mph    
Visibility 10 miles    
Events Thunderstorm    
Averages and records for this station are not official NWS values.
T = Trace of Precipitation, MM = Missing Value Source: NWS Daily Summary

Daily Weather History Graph

Daily Weather History Graph

Search for Another Location

Airport or City:

Trip Planner

Search our weather history database for the weather conditions in past years. The results will help you decide how hot, cold, wet, or windy it might be!

Date:

Astronomy

Jan. 14, 2013 Rise Set
Actual Time 7:25 AM CST 5:37 PM CST
Civil Twilight 6:59 AM CST 6:04 PM CST
Nautical Twilight 6:28 AM CST 6:34 PM CST
Astronomical Twilight 5:58 AM CST 7:04 PM CST
Moon 9:12 AM CST (1/14) 9:10 PM CST (1/14)
Length of Visible Light 11h 05m
Length of Day
10h 11m
Waxing Crescent, 11% of the Moon is Illuminated
Jan 14
Waxing Crescent
Jan 18
First Quarter
Jan 26
Full
Feb 3
Last Quarter
Feb 10
New

Hourly Weather History & Observations

Time (CST) Temp. Windchill Dew Point Humidity Pressure Visibility Wind Dir Wind Speed Gust Speed Precip Events Conditions
12:15 AM 30.2 °F 20.2 °F 23.0 °F 75% 30.30 in 10.0 mi North 12.7 mph - N/A   Clear
12:55 AM 30.2 °F 19.8 °F 23.0 °F 75% 30.30 in 10.0 mi North 13.8 mph - N/A   Clear
1:15 AM 30.2 °F 20.8 °F 23.0 °F 75% 30.30 in 10.0 mi North 11.5 mph - N/A   Clear
1:35 AM 30.2 °F 20.8 °F 23.0 °F 75% 30.29 in 10.0 mi North 11.5 mph - N/A   Clear
1:55 AM 28.4 °F 19.1 °F 23.0 °F 80% 30.28 in 10.0 mi NNE 10.4 mph - N/A   Clear
2:15 AM 28.4 °F 19.1 °F 23.0 °F 80% 30.28 in 10.0 mi NNE 10.4 mph - N/A   Clear
2:55 AM 28.4 °F 18.5 °F 21.2 °F 74% 30.28 in 10.0 mi NNE 11.5 mph - N/A   Clear
3:15 AM 28.4 °F 19.7 °F 21.2 °F 74% 30.29 in 10.0 mi NNE 9.2 mph - N/A   Clear
3:35 AM 28.4 °F 19.1 °F 21.2 °F 74% 30.30 in 10.0 mi North 10.4 mph - N/A   Clear
3:55 AM 28.4 °F 20.4 °F 21.2 °F 74% 30.31 in 10.0 mi North 8.1 mph - N/A   Clear
4:15 AM 28.4 °F 20.4 °F 23.0 °F 80% 30.32 in 10.0 mi North 8.1 mph - N/A   Clear
4:35 AM 28.4 °F 19.7 °F 23.0 °F 80% 30.32 in 10.0 mi North 9.2 mph - N/A   Clear
4:55 AM 28.4 °F 19.1 °F 23.0 °F 80% 30.31 in 10.0 mi North 10.4 mph - N/A   Clear
5:15 AM 28.4 °F 19.1 °F 23.0 °F 80% 30.32 in 10.0 mi North 10.4 mph - N/A   Scattered Clouds
5:35 AM 30.2 °F 21.3 °F 21.2 °F 69% 30.34 in 10.0 mi North 10.4 mph - N/A   Mostly Cloudy
5:55 AM 30.2 °F 19.8 °F 23.0 °F 75% 30.29 in 10.0 mi North 13.8 mph 17.3 mph N/A   Mostly Cloudy
6:15 AM 30.2 °F 20.8 °F 23.0 °F 75% 30.34 in 10.0 mi North 11.5 mph - N/A   Mostly Cloudy
6:35 AM 30.2 °F 19.8 °F 23.0 °F 75% 30.33 in 10.0 mi North 13.8 mph - N/A   Overcast
6:55 AM 30.2 °F 21.9 °F 23.0 °F 75% 30.34 in 10.0 mi North 9.2 mph - N/A   Scattered Clouds
7:15 AM 30.2 °F 21.9 °F 23.0 °F 75% 30.36 in 10.0 mi North 9.2 mph - N/A   Scattered Clouds
7:35 AM 30.2 °F 21.9 °F 23.0 °F 75% 30.36 in 10.0 mi ENE 9.2 mph - N/A   Mostly Cloudy
7:55 AM 30.2 °F 24.3 °F 21.2 °F 69% 30.38 in 10.0 mi NNE 5.8 mph - N/A   Mostly Cloudy
8:15 AM 30.2 °F 24.3 °F 21.2 °F 69% 30.37 in 10.0 mi NNE 5.8 mph - N/A Thunderstorm Mostly Cloudy
8:35 AM 30.2 °F 23.4 °F 21.2 °F 69% 30.40 in 10.0 mi North 6.9 mph - N/A   Mostly Cloudy
8:55 AM 32.0 °F 23.0 °F 23.0 °F 69% 30.39 in 10.0 mi North 11.5 mph - N/A   Overcast
9:15 AM 32.0 °F 24.2 °F 21.2 °F 64% 30.39 in 10.0 mi NNE 9.2 mph - N/A   Overcast
9:35 AM 32.0 °F 22.5 °F 23.0 °F 69% 30.37 in 10.0 mi North 12.7 mph - N/A   Scattered Clouds
9:55 AM 32.0 °F 23.0 °F 23.0 °F 69% 30.37 in 10.0 mi NNE 11.5 mph - N/A   Scattered Clouds
10:15 AM 32.0 °F 24.2 °F 23.0 °F 69% 30.36 in 10.0 mi NE 9.2 mph - N/A   Scattered Clouds
10:35 AM 32.0 °F 23.6 °F 23.0 °F 69% 30.35 in 10.0 mi NE 10.4 mph - N/A   Scattered Clouds
10:55 AM 33.8 °F 25.3 °F 23.0 °F 65% 30.35 in 10.0 mi NNE 11.5 mph - N/A   Clear
11:15 AM 35.6 °F 28.6 °F 24.8 °F 65% 30.34 in 10.0 mi NNE 9.2 mph - N/A   Clear
11:35 AM 35.6 °F 28.0 °F 24.8 °F 65% 30.33 in 10.0 mi NNE 10.4 mph 16.1 mph N/A   Clear
12:15 PM 37.4 °F 29.8 °F 24.8 °F 60% 30.30 in 10.0 mi NNE 11.5 mph - N/A   Clear
12:35 PM 39.2 °F 31.6 °F 26.6 °F 61% 30.29 in 10.0 mi NNE 12.7 mph 18.4 mph N/A   Clear
1:15 PM 41.0 °F 34.7 °F 26.6 °F 57% 30.26 in 10.0 mi NE 10.4 mph 17.3 mph N/A   Clear
1:35 PM 41.0 °F 35.2 °F 26.6 °F 57% 30.26 in 10.0 mi NNE 9.2 mph - N/A   Clear
1:55 PM 42.8 °F 37.0 °F 28.4 °F 57% 30.26 in 10.0 mi NNE 10.4 mph 16.1 mph N/A   Clear
2:15 PM 42.8 °F 35.8 °F 26.6 °F 53% 30.26 in 10.0 mi ENE 13.8 mph 17.3 mph N/A   Clear
2:35 PM 42.8 °F 37.0 °F 28.4 °F 57% 30.26 in 10.0 mi NE 10.4 mph - N/A   Clear
2:55 PM 42.8 °F 37.0 °F 26.6 °F 53% 30.26 in 10.0 mi ENE 10.4 mph - N/A   Clear
3:15 PM 42.8 °F 37.0 °F 26.6 °F 53% 30.26 in 10.0 mi NE 10.4 mph - N/A   Clear
3:35 PM 42.8 °F 37.5 °F 26.6 °F 53% 30.27 in 10.0 mi ENE 9.2 mph - N/A   Clear
3:55 PM 42.8 °F 37.5 °F 26.6 °F 53% 30.26 in 10.0 mi NE 9.2 mph - N/A   Clear
4:15 PM 42.8 °F 38.6 °F 26.6 °F 53% 30.26 in 10.0 mi ENE 6.9 mph - N/A   Clear
4:35 PM 42.8 °F 38.6 °F 26.6 °F 53% 30.26 in 10.0 mi ENE 6.9 mph - N/A   Clear
4:55 PM 42.8 °F 38.0 °F 26.6 °F 53% 30.26 in 10.0 mi ENE 8.1 mph - N/A   Clear
5:15 PM 41.0 °F 37.1 °F 26.6 °F 57% 30.26 in 10.0 mi ENE 5.8 mph - N/A   Clear
5:35 PM 41.0 °F 37.1 °F 26.6 °F 57% 30.26 in 10.0 mi ENE 5.8 mph - N/A   Clear
5:55 PM 41.0 °F 37.1 °F 23.0 °F 49% 30.26 in 10.0 mi East 5.8 mph - N/A   Clear
6:15 PM 39.2 °F 35.0 °F 23.0 °F 52% 30.26 in 10.0 mi ENE 5.8 mph - N/A   Clear
6:35 PM 39.2 °F 35.9 °F 23.0 °F 52% 30.27 in 10.0 mi East 4.6 mph - N/A   Clear
6:55 PM 39.2 °F 35.0 °F 23.0 °F 52% 30.28 in 10.0 mi ENE 5.8 mph - N/A   Clear
7:15 PM 37.4 °F 32.8 °F 23.0 °F 56% 30.27 in 10.0 mi East 5.8 mph - N/A   Clear
7:35 PM 37.4 °F 32.8 °F 21.2 °F 52% 30.27 in 10.0 mi East 5.8 mph - N/A   Clear
7:55 PM 37.4 °F 33.8 °F 21.2 °F 52% 30.27 in 10.0 mi ENE 4.6 mph - N/A   Clear
8:15 PM 37.4 °F 34.9 °F 21.2 °F 52% 30.26 in 10.0 mi ENE 3.5 mph - N/A   Clear
8:35 PM 35.6 °F 31.7 °F 21.2 °F 56% 30.26 in 10.0 mi ENE 4.6 mph - N/A   Clear
8:55 PM 35.6 °F 31.7 °F 21.2 °F 56% 30.26 in 10.0 mi NE 4.6 mph - N/A   Clear
9:15 PM 35.6 °F 30.7 °F 21.2 °F 56% 30.26 in 10.0 mi NE 5.8 mph - N/A   Clear
9:35 PM 35.6 °F 31.7 °F 21.2 °F 56% 30.27 in 10.0 mi NE 4.6 mph - N/A   Clear
9:55 PM 35.6 °F 30.7 °F 19.4 °F 52% 30.27 in 10.0 mi ENE 5.8 mph - N/A   Clear
10:15 PM 33.8 °F 28.6 °F 21.2 °F 60% 30.27 in 10.0 mi ENE 5.8 mph - N/A   Clear
10:35 PM 33.8 °F 28.6 °F 21.2 °F 60% 30.26 in 10.0 mi ENE 5.8 mph - N/A   Clear
10:55 PM 33.8 °F 27.0 °F 21.2 °F 60% 30.26 in 10.0 mi ENE 8.1 mph - N/A   Clear
11:15 PM 33.8 °F 27.7 °F 21.2 °F 60% 30.26 in 10.0 mi ENE 6.9 mph - N/A   Clear
11:35 PM 33.8 °F 27.0 °F 21.2 °F 60% 30.26 in 10.0 mi ENE 8.1 mph - N/A   Clear
11:55 PM 33.8 °F 27.0 °F 21.2 °F 60% 30.25 in 10.0 mi ENE 8.1 mph - N/A   Clear